Location: La Fredeussais
(48.1780°N, 1.3980°W)
Time: 09:36:17
(UTC+00:00)

USA 215 - Pass Details

Date: 09 May 2021
Orbit: 1101 x 1107 km, 123.0° (Epoch: 10 June)

Event Time Altitude Azimuth Distance (km) Brightness Sun altitude
Exits shadow 22:57:11 13° 103° (ESE) 2,700 5.0 -22.6°
Maximum altitude 23:02:56 63° 25° (NNE) 1,218 3.6 -22.9°
Drops below altitude 10° 23:09:23 10° 306° (NW) 2,967 6.2 -23.2°
Sets 23:11:53 0° 304° (WNW) 3,928 6.9 -23.3°
